Regional Weather Roundup
Issued by NWS

Home | Current Version | Previous Version | Graphics & Text | Print | Product List | Glossary On
Versions: 1 2 3 4 5 6 7 8 9 10 11 12 13 14 15 16 17 18 19 20 21 22 23 24 25 26 27 28 29 30 31 32 33 34 35 36 37 38 39 40 41 42 43 44 45 46 47 48 49 50
312
ASUS44 KJAN 060703
RWRMS

MISSISSIPPI HOURLY WEATHER ROUNDUP
NATIONAL WEATHER SERVICE JACKSON MS
100 AM CST FRI MAR 06 2015

NOTE: "FAIR: INDICATES FEW OR NO CLOUDS BELOW 12,000 FEET WITH NO
SIGNIFICANT WEATHER AND/OR OBSTRUCTIONS TO VISIBILITY.

MSZ001>002-007>008-010>013-018>021-025>028-034>036-060800-
NORTHWEST MISSISSIPPI

CITY           SKY/WX    TMP DP  RH WIND       PRES   REMARKS
CLARKSDALE       N/A     23  19  86 CALM      30.60F
CLEVELAND      FAIR      25  20  82 N7        30.58S WCI  17
GREENWOOD      CLEAR     24  13  62 NE6       30.57F WCI  17
GREENVILLE     CLEAR     25  19  78 MISG      30.57F
OLIVE BRANCH   CLEAR     14  14 100 CALM      30.58R
OXFORD         FAIR      18  10  73 CALM      30.57S
TUNICA         SUNNY     21  18  86 N3        30.60F
$$

MSZ003>006-009-014>017-022>024-029>033-037>039-060800-
NORTHEAST MISSISSIPPI

CITY           SKY/WX    TMP DP  RH WIND       PRES   REMARKS
COLUMBUS AFB   CLEAR     23  16  74 N10       30.53S WCI  13
CORINTH        FAIR      21  10  63 NE7       30.55S WCI  13
GOLDN TRIANGLE CLEAR     25  16  68 N9        30.52R WCI  15
STARKVILLE     FAIR      23  18  80 CALM      30.54S
TUPELO         CLEAR     21  12  68 NE9       30.55R WCI  11
$$

MSZ040-058-060800-
CENTRAL MISSISSIPPI

CITY           SKY/WX    TMP DP  RH WIND       PRES   REMARKS
JACKSON INTL   PTCLDY    26  15  63 N10G22    30.51F WCI  16
JACKSON HAWKNS PTCLDY    25  13  60 N10       30.52F WCI  15
MERIDIAN KEY   CLEAR     25  18  74 N14       30.49S WCI  13
MERIDIAN NAS   PTCLDY    25  18  74 N9        30.50S WCI  15
VICKSBURG      CLEAR     27  15  61 N9        30.56F WCI  18
$$

MSZ059>079-060800-
SOUTH MISSISSIPPI

CITY           SKY/WX    TMP DP  RH WIND       PRES   REMARKS
BROOKHAVEN     FAIR      27  21  80 CALM      30.50F
HATTIESBURG    PTCLDY    30  19  63 N10       30.47F WCI  21
MCCOMB         PTCLDY    27  16  63 N10       30.48F WCI  17
NATCHEZ        CLEAR     28  12  50 N12       30.52S WCI  18
PINE BELT      PTCLDY    28  18  64 N10       30.47S WCI  19
$$

MSZ080>082-060800-
COASTAL MISSISSIPPI

CITY           SKY/WX    TMP DP  RH WIND       PRES   REMARKS
BILOXI         PTCLDY    32  21  63 N17G24    30.41S WCI  21
PASCAGOULA     PTCLDY    31  22  69 N15G23    30.41R WCI  20
GULFPORT       PTCLDY    32  18  56 N15G28    30.41F WCI  22
$$



USA.gov is the U.S. government's official web portal to all federal, state and local government web resources and services.